ONEWEB-0042, 45441

Orbit data source: Space-Track

ONEWEB-0042, 45441 is a payload satellite owned by One Web (UK) in LEO that was launched on Sat, 21 Mar 2020 UTC via a SOYUZ-2-1B launch vehicle from the Tyuratam Missile And Space Complex (TTMTR). Payload-class satellites include a variety of spacecraft equipped with specific instruments for various scientific and technological missions. These include communications satellites like Starlink; space stations such as the ISS; scientific satellites like the Hubble; Earth observation satellites from companies like Planet Labs, Umbra, and HawkEye 360; GPS; miniature CubeSats for education and research; and military/defense satellites.

Loading next visibility...
Identifier
45441, 2020-020T
Orbit
LEO
Country
Flag of UKUK
Related business
Manufacturer
One Web
Mission
Operational Commercial Communications
Bus & Motor
ARROW, Unknown motor
Mass
148 kg wet, ~140 kg dry
Launch date (UTC)
2020-03-21 (6 years ago)
Launch vehicle
SOYUZ-2-1B
Launch site
Tyuratam Missile And Space Complex (TTMTR)
Object type
Payload
Rocket body
Debris
Shape & HBR
Trap Box + 2 Pan, 6.7 m
Radar Cross Section
3.464 m², Large (>1 m²)

Expand to show TLE details & history
Last TLE update: 9 hours ago

TLE from 9 hours ago
0 ONEWEB-0042
1 45441U 20020T   26035.06124739 -.00000543  00000-0 -15669-2 0  9993
2 45441  87.8822  47.5418 0001907  87.2108 272.9238 13.11417384285211
Epoch: 2026-02-04T01:28Z
TLE epoch observation values (Epoch: 2026-02-04T01:28:11.774Z)
Latitude
-0.00004°
Longitude
-108.7405°
Altitude
1,220.496 km
Speed
7.244 km/s
True Right ascension
03h 10m 10s
True Declination
0° 00' 00"
Sunlit
Object was in daylight at epoch
Visualization orbit readout
Latitude
Unknown
Longitude
Unknown
Altitude
Unknown
Speed
Unknown
Apparent Right ascension
Unknown
Apparent Declination
Unknown
Sunlit
N/A
Visualization observer readout
Local Sidereal Time
12:38:45
Azimuth
Unknown
Elevation
Unknown
Doppler factor
Unknown
Orbital elements
Apogee altitude
1,216.247 km
Perigee altitude
1,213.351 km
Semi-major axis
7,592.936 km
Eccentricity
0.00019
Inclination
87.8822°
RAAN
47.5418°
Arg. of periapsis
87.2108°
True anomaly
272.90198°
Mean anomaly
272.9238°
Eccentric anomaly
272.91289°
Mean motion
3.28041 °/min
Orbital period
109.74 mins
BSTAR
-0.0015669
Loading maneuver chart data...
Computing Atmospheric mass density...
Loading historical data...
Loading historical data...
Loading historical data...
Loading historical data...
Loading historical data...
Loading historical data...
Loading historical data...

Documentation

Showing up to 5 results
|